COSMOS 2491 DEB, 47111

Orbit data source: Space-Track

COSMOS 2491 DEB, 47111 is space debris in LEO originally from a launch on Wed, 25 Dec 2013 UTC launched from the Plesetsk Missile And Space Complex (PKMTR). Debris objects in space refer to the collection of defunct objects orbiting the Earth. Examples of debris include non-operational satellites, rocket bodies, and fragments generated from explosions, collisions, or faulty payload assembly.

Loading next visibility...
Identifier
47111, 2013-076AG
Orbit
LEO
Country
Flag of CISCIS
Related business
Manufacturer
TsNIIKhM
Mission
Spacecraft
Bus & Motor
Unknown
Mass
Unknown
Launch date (UTC)
2013-12-25 (12 years ago)
Launch vehicle
Unknown
Launch site
Plesetsk Missile And Space Complex (PKMTR)
Object type
Payload
Rocket body
Debris
Shape & HBR
Unknown shape, 0.1 m
Radar Cross Section
Small (<0.1 m²)

Expand to show TLE details & history
Last TLE update: 11 hours ago

TLE from 11 hours ago
0 COSMOS 2491 DEB
1 47111U 13076AG  25308.22225610  .00003421  00000-0  19823-1 0  9993
2 47111  82.4588 285.4022 0101624  14.1788 346.2115 12.57920194110955
Epoch: 2025-11-04T05:20Z
TLE epoch observation values (Epoch: 2025-11-04T05:20:02.927Z)
Latitude
-0.00002°
Longitude
161.67762°
Altitude
1,357.217 km
Speed
7.215 km/s
True Right ascension
19h 01m 36s
True Declination
0° 00' 00"
Sunlit
Object was in daylight at epoch
Visualization orbit readout
Latitude
Unknown
Longitude
Unknown
Altitude
Unknown
Speed
Unknown
Apparent Right ascension
Unknown
Apparent Declination
Unknown
Sunlit
N/A
Visualization observer readout
Local Sidereal Time
12:39:22
Azimuth
Unknown
Elevation
Unknown
Doppler factor
Unknown
Orbital elements
Apogee altitude
1,508.21 km
Perigee altitude
1,349.534 km
Semi-major axis
7,807.009 km
Eccentricity
0.01016
Inclination
82.4588°
RAAN
285.4022°
Arg. of periapsis
14.1788°
True anomaly
345.93048°
Mean anomaly
346.2115°
Eccentric anomaly
346.07134°
Mean motion
3.14642 °/min
Orbital period
114.42 mins
BSTAR
0.019823
Loading maneuver chart data...
Computing Atmospheric mass density...
Loading historical data...
Loading historical data...
Loading historical data...
Loading historical data...
Loading historical data...
Loading historical data...
Loading historical data...

Documentation

Showing up to 5 results
|